Hourly Weather Abaete

Today, 25 February, Thursday

Time Temperature Precipitation Wind Pressure Humidity
00:00 +21°C° 0 mm 0 mps 706 mmHg 73%
01:00 +20°C° 0 mm 0 mps 706 mmHg 75%
02:00 +20°C° 0 mm 0 mps 705 mmHg 77%
03:00 +20°C° 0 mm 0 mps 705 mmHg 79%
04:00 +19°C° 0 mm 0 mps 705 mmHg 80%
05:00 +19°C° 0 mm 0 mps 705 mmHg 82%
06:00 +21°C° 0 mm 1 mps 705 mmHg 84%
07:00 +22°C° 0 mm 1 mps 706 mmHg 79%
08:00 +24°C° 0 mm 1 mps 706 mmHg 75%
09:00 +26°C° 0 mm 1 mps 707 mmHg 71%
10:00 +28°C° 0 mm 1 mps 707 mmHg 64%
11:00 +29°C° 0 mm 1 mps 706 mmHg 58%
12:00 +31°C° 0 mm 1 mps 706 mmHg 51%
13:00 +31°C° 0 mm 1 mps 706 mmHg 49%
14:00 +31°C° 0 mm 1 mps 705 mmHg 47%
15:00 +31°C° 0 mm 1 mps 704 mmHg 44%
16:00 +30°C° 0 mm 1 mps 704 mmHg 52%
17:00 +28°C° 0 mm 2 mps 703 mmHg 60%
18:00 +26°C° 0 mm 2 mps 703 mmHg 67%
19:00 +25°C° 0 mm 2 mps 703 mmHg 67%
20:00 +24°C° 0 mm 1 mps 704 mmHg 68%
21:00 +23°C° 0 mm 1 mps 704 mmHg 68%
22:00 +23°C° 0 mm 1 mps 704 mmHg 69%
23:00 +22°C° 0 mm 1 mps 704 mmHg 71%

Tomorrow, 26 February, Friday

Time Temperature Precipitation Wind Pressure Humidity
00:00 +22°C° 0 mm 1 mps 704 mmHg 73%
01:00 +21°C° 0 mm 1 mps 704 mmHg 76%
02:00 +21°C° 0 mm 1 mps 704 mmHg 80%
03:00 +21°C° 0 mm 1 mps 703 mmHg 83%
04:00 +21°C° 0 mm 1 mps 703 mmHg 85%
05:00 +20°C° 0 mm 1 mps 704 mmHg 88%
06:00 +20°C° 0 mm 1 mps 704 mmHg 90%
07:00 +22°C° 0 mm 1 mps 704 mmHg 86%
08:00 +23°C° 0 mm 1 mps 705 mmHg 83%
09:00 +25°C° 0 mm 1 mps 705 mmHg 79%
10:00 +26°C° 0.2 mm 1 mps 705 mmHg 75%
11:00 +28°C° 0.2 mm 1 mps 705 mmHg 72%
12:00 +29°C° 0.2 mm 1 mps 705 mmHg 68%
13:00 +29°C° 0.5 mm 1 mps 705 mmHg 69%
14:00 +29°C° 0.5 mm 1 mps 704 mmHg 69%
15:00 +29°C° 0.5 mm 1 mps 704 mmHg 70%
16:00 +28°C° 2.1 mm 2 mps 704 mmHg 76%
17:00 +26°C° 2.1 mm 2 mps 704 mmHg 83%
18:00 +25°C° 2.1 mm 3 mps 703 mmHg 89%
19:00 +24°C° 0.5 mm 3 mps 704 mmHg 91%
20:00 +22°C° 0.5 mm 3 mps 704 mmHg 93%
21:00 +21°C° 0.5 mm 3 mps 705 mmHg 95%
22:00 +21°C° 0.9 mm 3 mps 705 mmHg 95%
23:00 +21°C° 0.9 mm 3 mps 705 mmHg 96%

Day after tomorrow, 27 February, Saturday

Time Temperature Precipitation Wind Pressure Humidity
00:00 +21°C° 0.9 mm 2 mps 705 mmHg 96%
01:00 +21°C° 0.8 mm 3 mps 705 mmHg 96%
02:00 +21°C° 0.8 mm 3 mps 705 mmHg 96%
03:00 +21°C° 0.8 mm 3 mps 705 mmHg 96%
04:00 +20°C° 1.6 mm 3 mps 705 mmHg 97%
05:00 +20°C° 1.6 mm 3 mps 705 mmHg 97%
06:00 +20°C° 1.6 mm 2 mps 705 mmHg 98%
07:00 +21°C° 0.2 mm 2 mps 706 mmHg 96%
08:00 +21°C° 0.2 mm 2 mps 706 mmHg 94%
09:00 +23°C° 0.2 mm 1 mps 706 mmHg 93%
10:00 +23°C° 0.1 mm 2 mps 707 mmHg 89%
11:00 +24°C° 0.1 mm 2 mps 707 mmHg 86%
12:00 +25°C° 0.1 mm 2 mps 707 mmHg 83%
13:00 +25°C° 0.6 mm 2 mps 706 mmHg 82%
14:00 +26°C° 0.6 mm 2 mps 706 mmHg 81%
15:00 +26°C° 0.6 mm 2 mps 705 mmHg 80%
16:00 +25°C° 0.4 mm 1 mps 705 mmHg 83%
17:00 +25°C° 0.4 mm 1 mps 705 mmHg 87%
18:00 +22°C° 0.4 mm 0 mps 704 mmHg 90%
19:00 +22°C° 0.3 mm 0 mps 705 mmHg 90%
20:00 +21°C° 0.3 mm 0 mps 705 mmHg 90%
21:00 +21°C° 0.3 mm 0 mps 705 mmHg 91%
22:00 +21°C° 0.7 mm 0 mps 705 mmHg 90%
23:00 +23°C° 0.7 mm 1 mps 705 mmHg 89%

28 February, Sunday

Time Temperature Precipitation Wind Pressure Humidity
00:00 +23°C° 0.7 mm 1 mps 706 mmHg 89%
01:00 +22°C° 0.4 mm 1 mps 705 mmHg 90%
02:00 +22°C° 0.4 mm 1 mps 705 mmHg 92%
03:00 +21°C° 0.4 mm 1 mps 704 mmHg 94%
04:00 +21°C° 0.2 mm 1 mps 705 mmHg 95%
05:00 +21°C° 0.2 mm 1 mps 705 mmHg 95%
06:00 +19°C° 0.2 mm 0 mps 705 mmHg 96%
07:00 +22°C° 0.2 mm 1 mps 706 mmHg 93%
08:00 +23°C° 0.2 mm 1 mps 706 mmHg 89%
09:00 +24°C° 0.2 mm 1 mps 706 mmHg 86%
10:00 +25°C° 0.6 mm 1 mps 706 mmHg 82%
11:00 +26°C° 0.6 mm 2 mps 706 mmHg 78%
12:00 +27°C° 0.6 mm 2 mps 706 mmHg 75%
13:00 +26°C° 1.2 mm 2 mps 706 mmHg 79%
14:00 +25°C° 1.2 mm 2 mps 705 mmHg 84%
15:00 +24°C° 1.2 mm 2 mps 705 mmHg 88%
16:00 +23°C° 0.3 mm 2 mps 704 mmHg 90%
17:00 +23°C° 0.3 mm 1 mps 704 mmHg 92%
18:00 +22°C° 0.3 mm 1 mps 704 mmHg 94%
19:00 +22°C° 0.1 mm 1 mps 704 mmHg 95%
20:00 +21°C° 0.1 mm 1 mps 705 mmHg 95%
21:00 +20°C° 0.1 mm 2 mps 705 mmHg 96%
22:00 +21°C° 0 mm 1 mps 705 mmHg 96%
23:00 +21°C° 0 mm 1 mps 705 mmHg 96%

1 March, Monday

Time Temperature Precipitation Wind Pressure Humidity
00:00 +20°C° 0 mm 1 mps 705 mmHg 97%
01:00 +20°C° 0 mm 1 mps 705 mmHg 97%
02:00 +20°C° 0 mm 1 mps 705 mmHg 97%
03:00 +20°C° 0 mm 1 mps 704 mmHg 97%
04:00 +20°C° 0 mm 1 mps 704 mmHg 97%
05:00 +20°C° 0 mm 1 mps 705 mmHg 97%
06:00 +20°C° 0 mm 1 mps 705 mmHg 97%
07:00 +21°C° 0 mm 1 mps 705 mmHg 93%
08:00 +21°C° 0 mm 2 mps 706 mmHg 89%
09:00 +23°C° 0 mm 2 mps 706 mmHg 86%
10:00 +25°C° 0 mm 2 mps 706 mmHg 80%
11:00 +26°C° 0 mm 2 mps 706 mmHg 75%
12:00 +27°C° 0 mm 2 mps 706 mmHg 69%
13:00 +27°C° 0.1 mm 2 mps 706 mmHg 70%
14:00 +27°C° 0.1 mm 2 mps 705 mmHg 71%
15:00 +27°C° 0.1 mm 2 mps 705 mmHg 72%
16:00 +26°C° 0.2 mm 2 mps 704 mmHg 76%
17:00 +25°C° 0.2 mm 2 mps 704 mmHg 80%
18:00 +25°C° 0.2 mm 1 mps 704 mmHg 84%
19:00 +24°C° 0 mm 1 mps 704 mmHg 85%
20:00 +23°C° 0 mm 1 mps 705 mmHg 86%
21:00 +23°C° 0 mm 1 mps 706 mmHg 86%
22:00 +22°C° 0.1 mm 1 mps 706 mmHg 88%
23:00 +22°C° 0.1 mm 1 mps 706 mmHg 89%

2 March, Tuesday

Time Temperature Precipitation Wind Pressure Humidity
00:00 +20°C° 0.1 mm 2 mps 706 mmHg 91%
01:00 +21°C° 0 mm 1 mps 706 mmHg 91%
02:00 +21°C° 0 mm 1 mps 706 mmHg 91%
03:00 +21°C° 0 mm 1 mps 705 mmHg 91%
04:00 +21°C° 0 mm 1 mps 706 mmHg 91%
05:00 +21°C° 0 mm 1 mps 706 mmHg 90%
06:00 +21°C° 0 mm 1 mps 706 mmHg 90%
07:00 +22°C° 0 mm 1 mps 706 mmHg 86%
08:00 +23°C° 0 mm 2 mps 707 mmHg 82%
09:00 +24°C° 0 mm 2 mps 708 mmHg 78%
10:00 +25°C° 0 mm 2 mps 708 mmHg 74%
11:00 +26°C° 0 mm 2 mps 708 mmHg 69%
12:00 +28°C° 0 mm 2 mps 708 mmHg 65%
13:00 +28°C° 0 mm 2 mps 707 mmHg 64%
14:00 +28°C° 0 mm 2 mps 707 mmHg 64%
15:00 +28°C° 0 mm 2 mps 706 mmHg 64%
16:00 +27°C° 0 mm 2 mps 706 mmHg 68%
17:00 +26°C° 0 mm 1 mps 705 mmHg 73%
18:00 +25°C° 0 mm 1 mps 705 mmHg 77%
19:00 +24°C° 0 mm 1 mps 706 mmHg 79%
20:00 +24°C° 0 mm 1 mps 706 mmHg 80%
21:00 +23°C° 0 mm 1 mps 707 mmHg 81%
22:00 +22°C° 0 mm 1 mps 707 mmHg 81%
23:00 +22°C° 0 mm 1 mps 707 mmHg 82%
Show more

We Need Your Consent

Meteoprog and our Service Providers may store and access personal data such as cookies, device identifiers or other similar technologies on your device and process such data to personalise content and ads, as well as provide social media features and to analyse the traffic.

  • Store and/or access information on your device

    Cookies, device identifiers or other information can be stored or accessed on your device for the purposes indicated above.

  • Personalised ads and content, ad and content measurement, audience insights, and products development

    Ads and content can be personalised based on a profile. More data can be added to better personalise ads and content. Ad and content performance can be measured. Insights about the audience who saw the ads and content can be derived. Such data can be used to develop or improve user’s experience, systems and software.

By clicking ‘I Agree’ you will allow the use of indicated cookies, device identifiers, web beacons or other similar technologies. Your settings can be changed in the browser on your device.

For certain purposes, legitimate interests may be relied on, rather than consent. You can read more about this in our Privacy and Cookie Policy.